This is the latest recevied weather packets stored in our database for station/object KD4EG. If no packets are shown the sender has not sent any weather packets the latest 10 day(s).
| Time | Temp. | Humidity | Pressure | Rain* | Wind** | Luminosity | Snow |
|---|---|---|---|---|---|---|---|
| 1778167351 | 15° C | 79% | 1014 hPa | 0 mm | - | 82 W/m² | - |
| 1778167047 | 15° C | 79% | 1013.9 hPa | 0 mm | - | 69 W/m² | - |
| 1778166743 | 15° C | 79% | 1013.7 hPa | 0 mm | - | 78 W/m² | - |
| 1778166440 | 15° C | 80% | 1013.6 hPa | 0 mm | - | 101 W/m² | - |
| 1778166137 | 15° C | 81% | 1013.6 hPa | 0 mm | - | 92 W/m² | - |
| 1778165833 | 15° C | 81% | 1013.6 hPa | 0 mm | - | 88 W/m² | - |
| 1778165530 | 15° C | 81% | 1013.6 hPa | 0 mm | - | 76 W/m² | - |
| 1778165226 | 15.56° C | 81% | 1013.4 hPa | 0 mm | - | 69 W/m² | - |
| 1778164925 | 15° C | 80% | 1013.7 hPa | 0 mm | - | 93 W/m² | - |
| 1778164621 | 15° C | 81% | 1013.6 hPa | 0 mm | - | 80 W/m² | - |
| 1778164318 | 15° C | 81% | 1013.6 hPa | 0 mm | - | 79 W/m² | - |
| 1778164013 | 15° C | 80% | 1013.4 hPa | 0 mm | - | 80 W/m² | - |
| 1778163710 | 15° C | 80% | 1013.8 hPa | 0 mm | - | 82 W/m² | - |
| 1778163407 | 15.56° C | 80% | 1013.6 hPa | 0 mm | - | 92 W/m² | - |
| 1778163104 | 15.56° C | 79% | 1013.6 hPa | 0 mm | - | 107 W/m² | - |
| 1778162800 | 15.56° C | 79% | 1013.7 hPa | 0 mm | - | 102 W/m² | - |
| 1778162497 | 15.56° C | 79% | 1013.3 hPa | 0 mm | - | 113 W/m² | - |
| 1778162195 | 15.56° C | 80% | 1013.3 hPa | 0 mm | - | 111 W/m² | - |
| 1778161892 | 15.56° C | 79% | 1013.4 hPa | 0 mm | - | 120 W/m² | - |
| 1778161588 | 15.56° C | 80% | 1013.6 hPa | 0 mm | - | 178 W/m² | - |
| 1778161284 | 15.56° C | 80% | 1014 hPa | 0 mm | - | 116 W/m² | - |
| 1778160980 | 15.56° C | 79% | 1014 hPa | 0 mm | - | 97 W/m² | - |
| 1778160678 | 15.56° C | 80% | 1013.8 hPa | 0 mm | - | 73 W/m² | - |
| 1778160375 | 15.56° C | 79% | 1013.9 hPa | 0 mm | - | 102 W/m² | - |
| 1778160071 | 15.56° C | 80% | 1013.8 hPa | 0 mm | - | 130 W/m² | - |
* Rain latest hour (hover to see other rain measurements)
** Current wind speed in m/s (hover to see current wind gust speed)